| time (UTC) | temp C | wind direction | speed KPH | gust KPH | rain 1hr cm | rain 24hr cm | rain mn cm | humidity % | barometer mb |
| 20260508132508 | 8 | 164 | 0.0 | 1.6 | 0.00 | 4.09 | 0.03 | 100 | 1003.0 |
| 20260508132007 | 8 | 217 | 0.0 | 1.6 | 0.00 | 4.09 | 0.03 | 100 | 1002.9 |
| 20260508131508 | 8 | 217 | 1.6 | 4.8 | 0.00 | 4.09 | 0.03 | 100 | 1002.9 |
| 20260508131017 | 8 | 14 | 3.2 | 4.8 | 0.00 | 4.09 | 0.03 | 100 | 1002.9 |
| 20260508130514 | 8 | 201 | 1.6 | 3.2 | 0.00 | 4.09 | 0.03 | 100 | 1003.0 |
| 20260508130105 | 7 | 207 | 1.6 | 3.2 | 0.00 | 4.09 | 0.03 | 100 | 1003.1 |
| 20260508125523 | 7 | 217 | 0.0 | 1.6 | 0.00 | 4.09 | 0.03 | 100 | 1003.0 |
| 20260508125033 | 7 | 216 | 0.0 | 1.6 | 0.00 | 4.09 | 0.03 | 100 | 1002.9 |
| 20260508124513 | 7 | 179 | 0.0 | 3.2 | 0.00 | 4.09 | 0.03 | 100 | 1002.9 |
| 20260508124022 | 7 | 202 | 0.0 | 3.2 | 0.00 | 4.09 | 0.03 | 100 | 1002.9 |
| 20260508123520 | 7 | 208 | 0.0 | 1.6 | 0.00 | 4.09 | 0.03 | 100 | 1002.7 |
| 20260508123048 | 7 | 328 | 0.0 | 1.6 | 0.00 | 4.09 | 0.03 | 100 | 1002.8 |
| 20260508122507 | 7 | 330 | 0.0 | 3.2 | 0.00 | 4.09 | 0.03 | 100 | 1002.8 |
| 20260508122008 | 7 | 15 | 0.0 | 4.8 | 0.00 | 4.09 | 0.03 | 100 | 1002.8 |
| 20260508121509 | 7 | 221 | 1.6 | 4.8 | 0.00 | 4.09 | 0.03 | 100 | 1002.8 |
| 20260508121038 | 7 | 219 | 1.6 | 3.2 | 0.00 | 4.09 | 0.03 | 100 | 1002.8 |
| 20260508120546 | 7 | 210 | 1.6 | 3.2 | 0.00 | 4.09 | 0.03 | 100 | 1002.6 |
| 20260508120052 | 7 | 189 | 1.6 | 3.2 | 0.00 | 4.29 | 0.03 | 100 | 1002.6 |
| 20260508115510 | 7 | 198 | 1.6 | 3.2 | 0.00 | 4.29 | 0.03 | 100 | 1002.5 |
| 20260508115010 | 7 | 158 | 1.6 | 3.2 | 0.00 | 4.29 | 0.03 | 100 | 1002.4 |
| 20260508114511 | 7 | 203 | 0.0 | 3.2 | 0.00 | 4.29 | 0.03 | 100 | 1002.5 |
| 20260508114019 | 7 | 196 | 1.6 | 4.8 | 0.00 | 4.29 | 0.03 | 100 | 1002.6 |
| 20260508113539 | 7 | 212 | 1.6 | 4.8 | 0.00 | 4.29 | 0.03 | 100 | 1002.5 |
| 20260508113025 | 7 | 188 | 0.0 | 4.8 | 0.00 | 4.29 | 0.03 | 100 | 1002.5 |
| 20260508112526 | 7 | 191 | 1.6 | 3.2 | 0.00 | 4.29 | 0.03 | 100 | 1002.5 |
| 20260508112054 | 7 | 199 | 1.6 | 4.8 | 0.00 | 4.29 | 0.03 | 100 | 1002.5 |
| 20260508111514 | 7 | 198 | 1.6 | 4.8 | 0.00 | 4.29 | 0.03 | 100 | 1002.5 |
| 20260508111015 | 7 | 195 | 1.6 | 4.8 | 0.00 | 4.29 | 0.03 | 100 | 1002.4 |
| 20260508110541 | 7 | 176 | 1.6 | 8.0 | 0.00 | 4.29 | 0.03 | 100 | 1002.5 |
| 20260508110049 | 7 | 167 | 3.2 | 8.0 | 0.00 | 4.29 | 0.03 | 100 | 1002.6 |
| 20260508105507 | 7 | 188 | 3.2 | 8.0 | 0.00 | 4.29 | 0.03 | 100 | 1002.7 |
| 20260508105008 | 7 | 138 | 3.2 | 4.8 | 0.00 | 4.29 | 0.03 | 100 | 1002.7 |
| 20260508104516 | 7 | 207 | 3.2 | 4.8 | 0.00 | 4.29 | 0.03 | 100 | 1002.6 |
| 20260508104017 | 7 | 171 | 0.0 | 3.2 | 0.00 | 4.29 | 0.03 | 100 | 1002.6 |
| 20260508103524 | 7 | 150 | 1.6 | 3.2 | 0.00 | 4.29 | 0.03 | 100 | 1002.6 |
| 20260508103046 | 7 | 110 | 1.6 | 4.8 | 0.00 | 4.29 | 0.03 | 100 | 1002.5 |
| 20260508102533 | 7 | 148 | 1.6 | 3.2 | 0.00 | 4.29 | 0.03 | 100 | 1002.5 |
| 20260508102013 | 7 | 132 | 1.6 | 3.2 | 0.00 | 4.29 | 0.03 | 100 | 1002.5 |
| 20260508101515 | 7 | 136 | 0.0 | 1.6 | 0.00 | 4.29 | 0.03 | 100 | 1002.5 |
| 20260508101023 | 7 | 216 | 0.0 | 1.6 | 0.00 | 4.29 | 0.03 | 100 | 1002.4 |
| 20260508100541 | 6 | 114 | 0.0 | 1.6 | 0.00 | 4.29 | 0.03 | 100 | 1002.3 |
| 20260508100051 | 6 | 114 | 0.0 | 1.6 | 0.00 | 4.29 | 0.03 | 100 | 1002.2 |
| 20260508095509 | 6 | 114 | 0.0 | 1.6 | 0.00 | 4.29 | 0.03 | 100 | 1002.2 |
| 20260508095020 | 6 | 114 | 0.0 | 1.6 | 0.00 | 4.29 | 0.03 | 100 | 1002.2 |
| 20260508094522 | 6 | 114 | 0.0 | 1.6 | 0.00 | 4.29 | 0.03 | 100 | 1002.1 |
| 20260508094031 | 6 | 116 | 0.0 | 1.6 | 0.00 | 4.29 | 0.03 | 100 | 1002.2 |
| 20260508093533 | 6 | 116 | 0.0 | 1.6 | 0.00 | 4.29 | 0.03 | 100 | 1002.2 |
| 20260508093022 | 6 | 116 | 0.0 | 1.6 | 0.00 | 4.29 | 0.03 | 100 | 1002.1 |
| 20260508092523 | 6 | 116 | 0.0 | 1.6 | 0.00 | 4.29 | 0.03 | 100 | 1002.1 |
| 20260508092026 | 6 | 116 | 0.0 | 1.6 | 0.00 | 4.29 | 0.03 | 100 | 1002.2 |
| 20260508091537 | 6 | 116 | 0.0 | 0.0 | 0.00 | 4.29 | 0.03 | 100 | 1002.2 |
| 20260508091020 | 6 | 116 | 0.0 | 1.6 | 0.00 | 4.29 | 0.03 | 100 | 1002.2 |
| 20260508090530 | 6 | 116 | 0.0 | 1.6 | 0.00 | 4.29 | 0.03 | 100 | 1002.2 |
| 20260508090033 | 6 | 116 | 0.0 | 1.6 | 0.00 | 4.29 | 0.03 | 100 | 1002.2 |
| 20260508085512 | 5 | 116 | 0.0 | 1.6 | 0.00 | 4.29 | 0.03 | 100 | 1002.2 |
| 20260508085041 | 6 | 116 | 0.0 | 1.6 | 0.00 | 4.29 | 0.03 | 100 | 1002.0 |
| 20260508084522 | 5 | 116 | 0.0 | 1.6 | 0.00 | 4.29 | 0.03 | 100 | 1001.9 |
| 20260508084030 | 5 | 169 | 0.0 | 0.0 | 0.00 | 4.29 | 0.03 | 100 | 1002.0 |
| 20260508083537 | 5 | 169 | 0.0 | 0.0 | 0.00 | 4.29 | 0.03 | 100 | 1002.0 |
| 20260508083020 | 5 | 169 | 0.0 | 0.0 | 0.00 | 4.29 | 0.03 | 100 | 1002.0 |
| 20260508082532 | 5 | 169 | 0.0 | 0.0 | 0.00 | 4.29 | 0.03 | 100 | 1002.0 |
| 20260508082017 | 5 | 169 | 0.0 | 0.0 | 0.00 | 4.29 | 0.03 | 100 | 1002.0 |
| 20260508081519 | 5 | 169 | 0.0 | 0.0 | 0.00 | 4.29 | 0.03 | 100 | 1002.1 |
| 20260508081007 | 5 | 169 | 0.0 | 0.0 | 0.00 | 4.29 | 0.03 | 100 | 1002.4 |
| 20260508080517 | 5 | 169 | 0.0 | 0.0 | 0.00 | 4.29 | 0.03 | 100 | 1002.4 |
| 20260508080042 | 5 | 169 | 0.0 | 0.0 | 0.00 | 4.39 | 0.03 | 100 | 1002.6 |
| 20260508075530 | 4 | 169 | 0.0 | 0.0 | 0.00 | 4.39 | 0.03 | 100 | 1002.5 |
| 20260508075013 | 4 | 169 | 0.0 | 0.0 | 0.00 | 4.39 | 0.03 | 100 | 1002.7 |
| 20260508074539 | 4 | 169 | 0.0 | 1.6 | 0.00 | 4.39 | 0.03 | 100 | 1002.7 |
| 20260508074021 | 4 | 169 | 0.0 | 1.6 | 0.00 | 4.39 | 0.03 | 100 | 1002.7 |
| 20260508073550 | 3 | 230 | 0.0 | 1.6 | 0.00 | 4.39 | 0.03 | 100 | 1002.5 |
| 20260508073011 | 3 | 230 | 0.0 | 0.0 | 0.00 | 4.39 | 0.03 | 100 | 1002.2 |
| 20260508072517 | 3 | 230 | 0.0 | 0.0 | 0.00 | 4.39 | 0.03 | 100 | 1002.2 |
| 20260508072028 | 3 | 230 | 0.0 | 0.0 | 0.00 | 4.39 | 0.03 | 100 | 1002.1 |
| 20260508071516 | 3 | 230 | 0.0 | 0.0 | 0.00 | 4.39 | 0.03 | 100 | 1002.0 |
| 20260508071036 | 3 | 230 | 0.0 | 0.0 | 0.00 | 4.39 | 0.03 | 100 | 1001.9 |
| 20260508070529 | 3 | 230 | 0.0 | 1.6 | 0.00 | 4.39 | 0.03 | 100 | 1002.1 |
| 20260508070031 | 3 | 230 | 0.0 | 0.0 | 0.00 | 4.70 | 0.03 | 100 | 1002.0 |
| 20260508065520 | 3 | 230 | 0.0 | 0.0 | 0.00 | 4.70 | 0.03 | 100 | 1002.1 |
| 20260508065023 | 3 | 230 | 0.0 | 0.0 | 0.00 | 4.70 | 0.03 | 100 | 1002.0 |
| 20260508064534 | 3 | 230 | 0.0 | 0.0 | 0.00 | 4.70 | 0.03 | 100 | 1002.1 |
| 20260508064016 | 4 | 230 | 0.0 | 1.6 | 0.00 | 4.70 | 0.03 | 100 | 1002.2 |
| 20260508063519 | 4 | 230 | 0.0 | 1.6 | 0.00 | 4.70 | 0.03 | 100 | 1002.1 |
| 20260508063029 | 4 | 230 | 0.0 | 1.6 | 0.00 | 4.70 | 0.03 | 100 | 1002.2 |
| 20260508062533 | 4 | 230 | 0.0 | 1.6 | 0.00 | 4.70 | 0.03 | 100 | 1002.2 |
| 20260508062015 | 4 | 230 | 0.0 | 0.0 | 0.00 | 4.70 | 0.03 | 100 | 1002.3 |
| 20260508061524 | 4 | 230 | 0.0 | 1.6 | 0.00 | 4.70 | 0.03 | 100 | 1002.4 |
| 20260508061011 | 5 | 230 | 0.0 | 1.6 | 0.10 | 4.70 | 0.03 | 100 | 1002.4 |
| 20260508060511 | 5 | 230 | 0.0 | 1.6 | 0.10 | 4.70 | 0.03 | 100 | 1002.2 |
| 20260508060058 | 5 | 230 | 0.0 | 1.6 | 0.10 | 4.70 | 0.03 | 100 | 1002.0 |
| 20260508055523 | 5 | 230 | 0.0 | 1.6 | 0.10 | 4.70 | 0.03 | 100 | 1002.0 |
| 20260508055008 | 5 | 230 | 0.0 | 0.0 | 0.10 | 4.70 | 0.03 | 100 | 1002.1 |
| 20260508054511 | 5 | 230 | 0.0 | 0.0 | 0.10 | 4.70 | 0.03 | 100 | 1002.2 |
| 20260508054018 | 5 | 230 | 0.0 | 0.0 | 0.10 | 4.70 | 0.03 | 100 | 1002.2 |
| 20260508053530 | 5 | 230 | 0.0 | 0.0 | 0.10 | 4.70 | 0.03 | 100 | 1002.4 |
| 20260508053013 | 5 | 230 | 0.0 | 0.0 | 0.10 | 4.70 | 0.03 | 100 | 1002.7 |
| 20260508052536 | 5 | 230 | 0.0 | 1.6 | 0.10 | 4.70 | 0.03 | 100 | 1002.6 |
| 20260508052027 | 5 | 230 | 0.0 | 1.6 | 0.10 | 4.70 | 0.03 | 100 | 1002.5 |
| 20260508051509 | 5 | 230 | 0.0 | 1.6 | 0.10 | 4.70 | 0.03 | 100 | 1002.5 |
| 20260508051012 | 5 | 230 | 0.0 | 0.0 | 0.00 | 4.60 | 0.00 | 100 | 1002.7 |
| 20260508050520 | 5 | 230 | 0.0 | 0.0 | 0.00 | 4.60 | 0.00 | 100 | 1002.7 |
| 20260508050040 | 5 | 230 | 0.0 | 0.0 | 0.00 | 4.60 | 0.00 | 100 | 1002.7 |
| 20260508045529 | 6 | 230 | 0.0 | 0.0 | 0.00 | 4.60 | 0.00 | 100 | 1002.7 |
| 20260508045012 | 6 | 230 | 0.0 | 1.6 | 0.00 | 4.60 | 0.00 | 100 | 1002.6 |
| 20260508044536 | 6 | 230 | 0.0 | 1.6 | 0.00 | 4.60 | 0.00 | 100 | 1002.6 |
| 20260508044024 | 6 | 230 | 0.0 | 0.0 | 0.00 | 4.60 | 0.00 | 100 | 1002.6 |
| 20260508043508 | 6 | 230 | 0.0 | 0.0 | 0.00 | 4.60 | 0.00 | 100 | 1002.5 |
| 20260508043012 | 6 | 230 | 0.0 | 0.0 | 0.00 | 4.60 | 0.00 | 100 | 1002.3 |
| 20260508042514 | 6 | 230 | 0.0 | 0.0 | 0.00 | 4.60 | 0.00 | 100 | 1002.4 |
| 20260508042046 | 6 | 230 | 0.0 | 0.0 | 0.00 | 4.60 | 0.00 | 100 | 1002.3 |
| 20260508041507 | 6 | 230 | 0.0 | 0.0 | 0.00 | 4.60 | 0.00 | 99 | 1002.2 |
| 20260508041017 | 6 | 230 | 0.0 | 0.0 | 0.00 | 4.60 | 0.00 | 99 | 1002.4 |
| 20260508040517 | 6 | 230 | 0.0 | 0.0 | 0.00 | 4.60 | 0.00 | 99 | 1002.5 |
| 20260508040049 | 7 | 230 | 0.0 | 0.0 | 0.00 | 4.60 | 0.00 | 100 | 1002.6 |
| 20260508035509 | 7 | 230 | 0.0 | 0.0 | 0.00 | 4.60 | 0.00 | 100 | 1002.6 |
| 20260508035012 | 7 | 230 | 0.0 | 1.6 | 0.00 | 4.60 | 0.00 | 99 | 1002.6 |
| 20260508034513 | 7 | 230 | 0.0 | 1.6 | 0.00 | 4.60 | 0.00 | 99 | 1002.7 |
| 20260508034022 | 8 | 230 | 0.0 | 1.6 | 0.00 | 4.60 | 0.00 | 100 | 1002.6 |
| 20260508033524 | 8 | 230 | 0.0 | 1.6 | 0.00 | 4.60 | 0.00 | 100 | 1002.6 |
| 20260508033032 | 8 | 245 | 0.0 | 1.6 | 0.00 | 4.60 | 0.00 | 100 | 1002.6 |
| 20260508032530 | 8 | 245 | 0.0 | 1.6 | 0.00 | 4.60 | 0.00 | 100 | 1002.8 |
| 20260508032012 | 8 | 245 | 0.0 | 1.6 | 0.00 | 4.60 | 0.00 | 100 | 1003.0 |
| 20260508031520 | 8 | 245 | 1.6 | 1.6 | 0.00 | 4.60 | 0.00 | 100 | 1003.0 |
| 20260508031021 | 8 | 245 | 0.0 | 1.6 | 0.00 | 4.60 | 0.00 | 100 | 1002.9 |
| 20260508030550 | 8 | 245 | 0.0 | 1.6 | 0.00 | 4.60 | 0.00 | 100 | 1002.9 |
| 20260508030035 | 8 | 245 | 0.0 | 1.6 | 0.00 | 4.60 | 0.91 | 100 | 1002.9 |
| 20260508025514 | 8 | 245 | 0.0 | 1.6 | 0.00 | 4.60 | 0.91 | 100 | 1002.7 |
| 20260508025041 | 8 | 245 | 1.6 | 1.6 | 0.00 | 4.60 | 0.91 | 100 | 1003.0 |
| 20260508024529 | 8 | 245 | 0.0 | 1.6 | 0.00 | 4.60 | 0.91 | 100 | 1002.9 |
| 20260508024027 | 8 | 245 | 0.0 | 1.6 | 0.00 | 4.60 | 0.91 | 100 | 1002.9 |
| 20260508023023 | 8 | 6 | 0.0 | 1.6 | 0.00 | 4.60 | 0.91 | 100 | 1002.9 |
| 20260508022524 | 8 | 6 | 0.0 | 0.0 | 0.00 | 4.60 | 0.91 | 100 | 1002.8 |
| 20260508022029 | 7 | 6 | 0.0 | 0.0 | 0.00 | 4.60 | 0.91 | 100 | 1003.0 |
| 20260508021512 | 7 | 6 | 0.0 | 0.0 | 0.00 | 4.60 | 0.91 | 100 | 1002.9 |
| 20260508021024 | 7 | 6 | 0.0 | 0.0 | 0.00 | 4.60 | 0.91 | 100 | 1002.8 |
| 20260508020527 | 7 | 6 | 0.0 | 0.0 | 0.00 | 4.60 | 0.91 | 99 | 1002.8 |
| 20260508020058 | 7 | 6 | 0.0 | 1.6 | 0.00 | 4.60 | 0.91 | 99 | 1002.9 |
| 20260508015520 | 7 | 6 | 0.0 | 1.6 | 0.00 | 4.60 | 0.91 | 99 | 1002.8 |
| 20260508015029 | 7 | 6 | 0.0 | 0.0 | 0.00 | 4.60 | 0.91 | 99 | 1002.8 |
| 20260508014512 | 7 | 6 | 0.0 | 0.0 | 0.00 | 4.60 | 0.91 | 99 | 1002.9 |
| 20260508014044 | 7 | 6 | 0.0 | 0.0 | 0.00 | 4.60 | 0.91 | 99 | 1002.9 |
| 20260508013526 | 7 | 6 | 0.0 | 0.0 | 0.00 | 4.60 | 0.91 | 99 | 1003.0 |
| 20260508013008 | 8 | 6 | 0.0 | 1.6 | 0.00 | 4.60 | 0.91 | 99 | 1002.8 |
| 20260508012510 | 8 | 6 | 0.0 | 1.6 | 0.00 | 4.60 | 0.91 | 99 | 1002.5 |
| 20260508012018 | 8 | 6 | 0.0 | 0.0 | 0.00 | 4.60 | 0.91 | 99 | 1002.4 |
| 20260508011523 | 8 | 6 | 0.0 | 0.0 | 0.00 | 4.60 | 0.91 | 99 | 1002.4 |
| 20260508011026 | 8 | 6 | 0.0 | 0.0 | 0.00 | 4.60 | 0.91 | 99 | 1002.4 |
| 20260508010518 | 8 | 6 | 0.0 | 0.0 | 0.00 | 4.60 | 0.91 | 99 | 1002.6 |
| 20260508010041 | 8 | 6 | 0.0 | 0.0 | 0.00 | 4.60 | 0.91 | 99 | 1002.7 |
| 20260508005529 | 8 | 6 | 0.0 | 1.6 | 0.00 | 4.60 | 0.91 | 99 | 1002.7 |
| 20260508005027 | 8 | 6 | 0.0 | 1.6 | 0.00 | 4.60 | 0.91 | 99 | 1002.7 |
| 20260508004523 | 8 | 6 | 0.0 | 0.0 | 0.00 | 4.60 | 0.91 | 99 | 1002.7 |
| 20260508004031 | 8 | 6 | 0.0 | 0.0 | 0.00 | 4.60 | 0.91 | 98 | 1002.7 |
| 20260508003528 | 8 | 6 | 0.0 | 0.0 | 0.00 | 4.60 | 0.91 | 98 | 1002.5 |
| 20260508003008 | 9 | 6 | 0.0 | 0.0 | 0.00 | 4.60 | 0.91 | 98 | 1002.6 |
| 20260508002512 | 9 | 6 | 0.0 | 0.0 | 0.00 | 4.60 | 0.91 | 98 | 1002.5 |
| 20260508002022 | 9 | 6 | 0.0 | 0.0 | 0.00 | 4.60 | 0.91 | 98 | 1002.6 |
| 20260508001524 | 9 | 6 | 0.0 | 0.0 | 0.00 | 4.60 | 0.91 | 98 | 1002.4 |
| 20260508001009 | 9 | 6 | 0.0 | 0.0 | 0.00 | 4.60 | 0.91 | 98 | 1002.5 |
| 20260508000518 | 10 | 6 | 0.0 | 0.0 | 0.00 | 4.60 | 0.91 | 98 | 1002.4 |
| 20260508000111 | 10 | 6 | 0.0 | 0.0 | 0.00 | 4.60 | 0.91 | 98 | 1002.4 |
| 20260507235512 | 10 | 6 | 0.0 | 1.6 | 0.00 | 4.60 | 0.91 | 98 | 1002.3 |
| 20260507235014 | 10 | 6 | 0.0 | 1.6 | 0.00 | 4.60 | 0.91 | 98 | 1002.4 |
| 20260507234517 | 10 | 6 | 0.0 | 0.0 | 0.00 | 4.60 | 0.91 | 98 | 1002.4 |
| 20260507234048 | 10 | 6 | 0.0 | 0.0 | 0.00 | 4.60 | 0.91 | 97 | 1002.4 |
| 20260507233511 | 10 | 6 | 0.0 | 0.0 | 0.00 | 4.60 | 0.91 | 97 | 1002.5 |
| 20260507233023 | 10 | 6 | 0.0 | 1.6 | 0.00 | 4.60 | 0.91 | 97 | 1002.4 |
| 20260507232524 | 10 | 6 | 0.0 | 1.6 | 0.00 | 4.60 | 0.91 | 97 | 1002.4 |
| 20260507232052 | 10 | 6 | 0.0 | 1.6 | 0.00 | 4.60 | 0.91 | 97 | 1002.4 |
| 20260507231513 | 10 | 7 | 0.0 | 3.2 | 0.00 | 4.60 | 0.91 | 96 | 1002.4 |
| 20260507231014 | 10 | 301 | 0.0 | 4.8 | 0.00 | 4.60 | 0.91 | 96 | 1002.4 |
| 20260507230512 | 11 | 12 | 1.6 | 3.2 | 0.00 | 4.60 | 0.91 | 96 | 1002.4 |
| 20260507230043 | 11 | 237 | 0.0 | 0.0 | 0.00 | 4.60 | 0.91 | 96 | 1002.3 |
| 20260507225553 | 11 | 237 | 0.0 | 1.6 | 0.00 | 4.60 | 0.91 | 96 | 1002.3 |
| 20260507225015 | 11 | 237 | 0.0 | 1.6 | 0.00 | 4.60 | 0.91 | 95 | 1002.2 |
| 20260507224513 | 11 | 237 | 0.0 | 1.6 | 0.00 | 4.60 | 0.91 | 95 | 1002.2 |
| 20260507224021 | 11 | 237 | 0.0 | 1.6 | 0.00 | 4.60 | 0.91 | 95 | 1002.1 |
| 20260507223523 | 11 | 238 | 0.0 | 1.6 | 0.00 | 4.60 | 0.91 | 95 | 1002.2 |
| 20260507223025 | 11 | 238 | 0.0 | 1.6 | 0.00 | 4.60 | 0.91 | 95 | 1002.2 |
| 20260507222533 | 11 | 238 | 0.0 | 1.6 | 0.00 | 4.60 | 0.91 | 95 | 1002.3 |
| 20260507222014 | 11 | 238 | 0.0 | 3.2 | 0.00 | 4.60 | 0.91 | 95 | 1002.2 |
| 20260507221515 | 11 | 238 | 1.6 | 4.8 | 0.00 | 4.60 | 0.91 | 94 | 1002.2 |
| 20260507221016 | 11 | 208 | 1.6 | 4.8 | 0.00 | 4.60 | 0.91 | 94 | 1002.2 |
| 20260507220524 | 12 | 218 | 1.6 | 4.8 | 0.00 | 4.60 | 0.91 | 94 | 1002.1 |
| 20260507220047 | 12 | 211 | 1.6 | 4.8 | 0.00 | 4.60 | 0.91 | 94 | 1002.1 |
| 20260507215533 | 12 | 208 | 1.6 | 4.8 | 0.00 | 4.60 | 0.91 | 93 | 1001.9 |
| 20260507215014 | 12 | 222 | 3.2 | 4.8 | 0.00 | 4.60 | 0.91 | 93 | 1001.9 |
| 20260507214515 | 12 | 215 | 1.6 | 4.8 | 0.00 | 4.60 | 0.91 | 93 | 1001.9 |
| 20260507214024 | 12 | 215 | 1.6 | 3.2 | 0.00 | 4.60 | 0.91 | 94 | 1001.9 |
| 20260507213525 | 12 | 321 | 0.0 | 4.8 | 0.00 | 4.60 | 0.91 | 93 | 1002.0 |
| 20260507213026 | 12 | 226 | 1.6 | 4.8 | 0.00 | 4.60 | 0.91 | 94 | 1002.0 |
| 20260507212534 | 12 | 224 | 1.6 | 4.8 | 0.00 | 4.60 | 0.91 | 95 | 1001.9 |
| 20260507212035 | 12 | 213 | 1.6 | 4.8 | 0.00 | 4.60 | 0.91 | 95 | 1001.9 |
| 20260507211515 | 12 | 214 | 1.6 | 4.8 | 0.00 | 4.60 | 0.91 | 95 | 1001.9 |
| 20260507211044 | 12 | 204 | 3.2 | 6.4 | 0.00 | 4.60 | 0.91 | 94 | 1001.9 |
| 20260507210532 | 12 | 191 | 1.6 | 6.4 | 0.00 | 4.60 | 0.91 | 95 | 1001.8 |
| 20260507210054 | 12 | 191 | 1.6 | 3.2 | 0.00 | 4.60 | 0.91 | 96 | 1001.8 |
| 20260507205519 | 12 | 196 | 1.6 | 3.2 | 0.00 | 4.60 | 0.91 | 96 | 1001.8 |
| 20260507205019 | 12 | 274 | 0.0 | 4.8 | 0.00 | 4.60 | 0.91 | 97 | 1001.8 |
| 20260507204521 | 12 | 235 | 1.6 | 4.8 | 0.00 | 4.60 | 0.91 | 97 | 1001.7 |
| 20260507204028 | 12 | 214 | 1.6 | 4.8 | 0.00 | 4.60 | 0.91 | 98 | 1001.8 |
| 20260507203509 | 11 | 216 | 0.0 | 3.2 | 0.00 | 4.60 | 0.91 | 98 | 1001.7 |
| 20260507203011 | 11 | 252 | 0.0 | 4.8 | 0.10 | 4.60 | 0.91 | 98 | 1001.6 |
| 20260507202512 | 11 | 126 | 0.0 | 4.8 | 0.10 | 4.60 | 0.91 | 98 | 1001.6 |
| 20260507202020 | 11 | 184 | 0.0 | 3.2 | 0.20 | 4.60 | 0.91 | 99 | 1001.5 |
| 20260507201520 | 11 | 294 | 1.6 | 3.2 | 0.20 | 4.60 | 0.91 | 99 | 1001.5 |
| 20260507201028 | 11 | 205 | 1.6 | 3.2 | 0.20 | 4.60 | 0.91 | 99 | 1001.4 |
| 20260507200509 | 11 | 191 | 0.0 | 3.2 | 0.20 | 4.60 | 0.91 | 99 | 1001.4 |
| 20260507200033 | 11 | 307 | 0.0 | 4.8 | 0.20 | 4.60 | 0.91 | 99 | 1001.5 |
| 20260507195518 | 11 | 209 | 1.6 | 4.8 | 0.20 | 4.60 | 0.91 | 99 | 1001.5 |
| 20260507195019 | 11 | 312 | 1.6 | 3.2 | 0.20 | 4.60 | 0.91 | 99 | 1001.5 |
| 20260507194547 | 11 | 300 | 0.0 | 3.2 | 0.20 | 4.60 | 0.91 | 99 | 1001.5 |
| 20260507194026 | 11 | 300 | 0.0 | 3.2 | 0.20 | 4.60 | 0.91 | 99 | 1001.6 |
| 20260507193527 | 11 | 205 | 0.0 | 4.8 | 0.20 | 4.60 | 0.91 | 99 | 1001.6 |
| 20260507193015 | 11 | 300 | 0.0 | 4.8 | 0.10 | 4.50 | 0.89 | 99 | 1001.6 |
| 20260507192535 | 11 | 116 | 1.6 | 4.8 | 0.10 | 4.50 | 0.89 | 99 | 1001.6 |
| 20260507192022 | 11 | 222 | 1.6 | 3.2 | 0.00 | 4.39 | 0.89 | 99 | 1001.5 |
| 20260507191523 | 11 | 221 | 0.0 | 3.2 | 0.00 | 4.39 | 0.89 | 100 | 1001.5 |
| 20260507191023 | 11 | 229 | 1.6 | 8.0 | 0.10 | 4.39 | 0.89 | 99 | 1001.5 |
| 20260507190530 | 11 | 248 | 3.2 | 8.0 | 0.10 | 4.39 | 0.89 | 99 | 1001.5 |
| 20260507190034 | 11 | 48 | 1.6 | 3.2 | 0.10 | 4.39 | 0.89 | 100 | 1001.4 |
| 20260507185511 | 11 | 308 | 1.6 | 6.4 | 0.10 | 4.39 | 0.89 | 100 | 1001.4 |
| 20260507185039 | 11 | 208 | 3.2 | 6.4 | 0.10 | 4.39 | 0.89 | 100 | 1001.3 |
| 20260507184547 | 11 | 200 | 1.6 | 3.2 | 0.30 | 4.39 | 0.89 | 100 | 1001.4 |
| 20260507184007 | 11 | 213 | 1.6 | 3.2 | 0.30 | 4.39 | 0.89 | 100 | 1001.4 |
| 20260507183508 | 11 | 216 | 1.6 | 3.2 | 0.30 | 4.39 | 0.89 | 100 | 1001.6 |
| 20260507183017 | 11 | 217 | 1.6 | 3.2 | 0.41 | 4.39 | 0.89 | 100 | 1001.6 |
| 20260507182518 | 11 | 220 | 1.6 | 4.8 | 0.51 | 4.39 | 0.89 | 100 | 1001.5 |
| 20260507182047 | 11 | 205 | 1.6 | 4.8 | 0.51 | 4.39 | 0.89 | 100 | 1001.4 |
| 20260507181527 | 11 | 206 | 1.6 | 4.8 | 0.51 | 4.39 | 0.89 | 100 | 1001.4 |
| 20260507181008 | 11 | 200 | 1.6 | 4.8 | 0.51 | 4.29 | 0.86 | 100 | 1001.6 |
| 20260507180536 | 11 | 239 | 0.0 | 6.4 | 0.51 | 4.29 | 0.86 | 100 | 1000.6 |
| 20260507180044 | 11 | 240 | 0.0 | 6.4 | 0.51 | 4.29 | 0.86 | 100 | 1001.2 |
| 20260507175520 | 11 | 192 | 3.2 | 11.3 | 0.51 | 4.29 | 0.86 | 100 | 1001.8 |
| 20260507175048 | 11 | 146 | 4.8 | 11.3 | 0.41 | 4.19 | 0.84 | 100 | 1002.3 |
| 20260507174508 | 11 | 223 | 3.2 | 8.0 | 0.41 | 4.09 | 0.81 | 100 | 1002.8 |
| 20260507174009 | 11 | 199 | 3.2 | 11.3 | 0.41 | 4.09 | 0.81 | 100 | 1002.0 |
| 20260507173534 | 11 | 229 | 6.4 | 11.3 | 0.51 | 4.09 | 0.81 | 100 | 1001.6 |
| 20260507173015 | 11 | 167 | 4.8 | 12.9 | 0.51 | 3.99 | 0.79 | 100 | 1001.1 |
| 20260507172516 | 11 | 201 | 6.4 | 12.9 | 0.41 | 3.91 | 0.79 | 100 | 1001.1 |
| 20260507172025 | 11 | 199 | 4.8 | 9.7 | 0.51 | 3.91 | 0.79 | 99 | 1001.1 |
| 20260507171522 | 11 | 206 | 3.2 | 8.0 | 0.61 | 3.91 | 0.79 | 99 | 1001.1 |
| 20260507171022 | 11 | 212 | 3.2 | 8.0 | 0.71 | 3.81 | 0.76 | 100 | 1000.8 |
| 20260507170530 | 11 | 204 | 4.8 | 8.0 | 0.79 | 3.81 | 0.76 | 99 | 1001.4 |
| 20260507170033 | 11 | 237 | 4.8 | 8.0 | 0.89 | 3.81 | 0.76 | 99 | 1001.7 |
| 20260507165512 | 11 | 207 | 4.8 | 16.1 | 1.09 | 3.81 | 0.76 | 100 | 1001.7 |
| 20260507165021 | 11 | 229 | 6.4 | 16.1 | 1.30 | 3.81 | 0.76 | 100 | 1002.0 |
| 20260507164541 | 11 | 172 | 4.8 | 11.3 | 1.30 | 3.71 | 0.74 | 99 | 1001.2 |
| 20260507164029 | 11 | 210 | 4.8 | 8.0 | 1.50 | 3.71 | 0.74 | 99 | 1001.9 |
| 20260507163537 | 11 | 212 | 3.2 | 9.7 | 1.50 | 3.61 | 0.71 | 100 | 1001.9 |
| 20260507163037 | 11 | 203 | 4.8 | 9.7 | 1.60 | 3.51 | 0.71 | 99 | 1002.3 |
| 20260507162544 | 11 | 203 | 3.2 | 8.0 | 1.70 | 3.51 | 0.71 | 100 | 1002.2 |
| 20260507162025 | 11 | 240 | 4.8 | 9.7 | 1.70 | 3.40 | 0.69 | 100 | 1002.1 |
| 20260507161534 | 11 | 203 | 6.4 | 9.7 | 1.70 | 3.20 | 0.64 | 100 | 1002.4 |
| 20260507161014 | 11 | 243 | 3.2 | 6.4 | 1.60 | 3.10 | 0.61 | 100 | 1002.3 |
| 20260507160515 | 11 | 214 | 3.2 | 6.4 | 1.70 | 3.00 | 0.61 | 99 | 1002.1 |
| 20260507160045 | 11 | 243 | 3.2 | 6.4 | 1.70 | 2.90 | 0.58 | 99 | 1002.1 |
| 20260507155524 | 11 | 230 | 3.2 | 8.0 | 1.50 | 2.69 | 0.53 | 99 | 1002.4 |
| 20260507155032 | 11 | 207 | 3.2 | 8.0 | 1.40 | 2.49 | 0.51 | 99 | 1002.6 |
| 20260507154514 | 11 | 207 | 3.2 | 12.9 | 1.30 | 2.39 | 0.48 | 99 | 1002.4 |
| 20260507154013 | 11 | 214 | 4.8 | 14.5 | 1.19 | 2.21 | 0.43 | 99 | 1002.7 |
| 20260507153514 | 11 | 237 | 4.8 | 8.0 | 1.19 | 2.11 | 0.43 | 99 | 1002.7 |
| 20260507153022 | 11 | 272 | 4.8 | 9.7 | 1.19 | 1.91 | 0.38 | 99 | 1002.9 |
| 20260507152523 | 11 | 210 | 6.4 | 11.3 | 1.19 | 1.80 | 0.36 | 99 | 1003.1 |
| 20260507152051 | 11 | 231 | 6.4 | 12.9 | 1.09 | 1.70 | 0.33 | 98 | 1003.4 |
| 20260507151510 | 11 | 231 | 8.0 | 16.1 | 0.89 | 1.50 | 0.30 | 98 | 1003.3 |
| 20260507151008 | 11 | 203 | 8.0 | 16.1 | 0.79 | 1.40 | 0.28 | 98 | 1003.3 |
| 20260507150517 | 11 | 233 | 6.4 | 8.0 | 0.71 | 1.30 | 0.25 | 99 | 1003.4 |
| 20260507150036 | 11 | 198 | 4.8 | 8.0 | 0.61 | 1.19 | 0.23 | 99 | 1003.5 |
| 20260507145541 | 11 | 247 | 4.8 | 8.0 | 0.61 | 1.19 | 0.23 | 98 | 1003.5 |
| 20260507145022 | 12 | 231 | 4.8 | 8.0 | 0.51 | 1.09 | 0.23 | 98 | 1003.4 |
| 20260507144530 | 12 | 229 | 4.8 | 9.7 | 0.51 | 1.09 | 0.23 | 98 | 1003.3 |
| 20260507144032 | 12 | 207 | 3.2 | 9.7 | 0.41 | 0.99 | 0.20 | 98 | 1003.4 |
| 20260507143511 | 12 | 239 | 6.4 | 11.3 | 0.30 | 0.89 | 0.18 | 98 | 1003.4 |
| 20260507143019 | 12 | 203 | 6.4 | 12.9 | 0.10 | 0.71 | 0.15 | 98 | 1003.3 |
| 20260507142548 | 12 | 167 | 4.8 | 14.5 | 0.00 | 0.61 | 0.13 | 98 | 1003.3 |
| 20260507142008 | 12 | 190 | 6.4 | 12.9 | 0.00 | 0.61 | 0.13 | 97 | 1003.3 |
| 20260507141510 | 12 | 229 | 6.4 | 19.3 | 0.00 | 0.61 | 0.13 | 97 | 1003.4 |
| 20260507141010 | 12 | 195 | 6.4 | 19.3 | 0.00 | 0.61 | 0.13 | 97 | 1003.2 |
| 20260507140539 | 12 | 209 | 6.4 | 14.5 | 0.00 | 0.61 | 0.13 | 97 | 1003.2 |
| 20260507140048 | 12 | 201 | 8.0 | 14.5 | 0.00 | 0.61 | 0.13 | 97 | 1003.2 |
| 20260507135546 | 11 | 194 | 6.4 | 14.5 | 0.00 | 0.61 | 0.13 | 97 | 1003.1 |
| 20260507135014 | 12 | 207 | 8.0 | 14.5 | 0.00 | 0.61 | 0.13 | 97 | 1003.3 |
| 20260507134513 | 12 | 198 | 6.4 | 14.5 | 0.00 | 0.61 | 0.13 | 97 | 1003.3 |
| 20260507134013 | 11 | 234 | 9.7 | 14.5 | 0.00 | 0.61 | 0.13 | 97 | 1003.5 |
| 20260507133522 | 11 | 207 | 8.0 | 17.7 | 0.00 | 0.61 | 0.13 | 97 | 1003.6 |
| 20260507133023 | 12 | 221 | 8.0 | 17.7 | 0.00 | 0.61 | 0.13 | 97 | 1003.6 |